When you browse on this site, cookies collect data to enhance your experience and personalize the content and advertising you see.
Visit our Privacy Policy to learn more. By continuing to use the site, you agree to this use of cookies and data.
  • In Hungary
  • List of Countries
  • For 7 days
  • Water Temperature
  • Satellite Maps
  • Weather Map
  • News
  • Weather Widgets
  • user-avatar
    Login

    Hourly Weather Karad

    Today, 18 July, Thursday

    Time Temperature Precipitation Wind Pressure Humidity
    00:00 +25°C° 0 mm 2 mps 707 mmHg 87%
    01:00 +25°C° 0 mm 2 mps 706 mmHg 89%
    02:00 +25°C° 0 mm 2 mps 706 mmHg 90%
    03:00 +24°C° 0 mm 2 mps 706 mmHg 91%
    04:00 +24°C° 0 mm 2 mps 706 mmHg 91%
    05:00 +24°C° 0 mm 1 mps 706 mmHg 94%
    06:00 +25°C° 0 mm 2 mps 706 mmHg 89%
    07:00 +26°C° 0 mm 2 mps 706 mmHg 84%
    08:00 +27°C° 0 mm 3 mps 706 mmHg 79%
    09:00 +28°C° 0 mm 3 mps 707 mmHg 73%
    10:00 +30°C° 0 mm 3 mps 707 mmHg 66%
    11:00 +32°C° 0 mm 4 mps 707 mmHg 60%
    12:00 +32°C° 0.6 mm 4 mps 706 mmHg 60%
    13:00 +33°C° 0.6 mm 4 mps 706 mmHg 59%
    14:00 +33°C° 0.6 mm 4 mps 705 mmHg 59%
    15:00 +32°C° 1 mm 5 mps 705 mmHg 62%
    16:00 +30°C° 1 mm 5 mps 705 mmHg 66%
    17:00 +30°C° 1 mm 5 mps 705 mmHg 69%
    18:00 +29°C° 0.8 mm 5 mps 705 mmHg 73%
    19:00 +28°C° 0.8 mm 4 mps 705 mmHg 78%
    20:00 +27°C° 0.8 mm 4 mps 706 mmHg 83%
    21:00 +26°C° 0 mm 3 mps 706 mmHg 84%
    22:00 +26°C° 0 mm 3 mps 706 mmHg 86%
    23:00 +26°C° 0 mm 3 mps 706 mmHg 87%

    Tomorrow, 19 July, Friday

    Time Temperature Precipitation Wind Pressure Humidity
    00:00 +25°C° 0 mm 3 mps 705 mmHg 88%
    01:00 +25°C° 0 mm 3 mps 705 mmHg 88%
    02:00 +25°C° 0 mm 3 mps 704 mmHg 89%
    03:00 +25°C° 0 mm 2 mps 704 mmHg 89%
    04:00 +25°C° 0 mm 2 mps 704 mmHg 90%
    05:00 +24°C° 0 mm 2 mps 704 mmHg 90%
    06:00 +25°C° 0 mm 2 mps 705 mmHg 87%
    07:00 +26°C° 0 mm 2 mps 705 mmHg 84%
    08:00 +26°C° 0 mm 3 mps 706 mmHg 81%
    09:00 +28°C° 0.1 mm 3 mps 706 mmHg 74%
    10:00 +29°C° 0.1 mm 3 mps 706 mmHg 68%
    11:00 +30°C° 0.1 mm 3 mps 706 mmHg 62%
    12:00 +31°C° 0.8 mm 3 mps 705 mmHg 60%
    13:00 +33°C° 0.8 mm 3 mps 705 mmHg 59%
    14:00 +33°C° 0.8 mm 4 mps 704 mmHg 57%
    15:00 +32°C° 1 mm 4 mps 704 mmHg 60%
    16:00 +32°C° 1 mm 4 mps 704 mmHg 64%
    17:00 +30°C° 1 mm 4 mps 704 mmHg 68%
    18:00 +29°C° 1.5 mm 4 mps 704 mmHg 73%
    19:00 +28°C° 1.5 mm 4 mps 704 mmHg 77%
    20:00 +27°C° 1.5 mm 4 mps 705 mmHg 82%
    21:00 +27°C° 0.6 mm 4 mps 705 mmHg 83%
    22:00 +26°C° 0.6 mm 4 mps 705 mmHg 85%
    23:00 +26°C° 0.6 mm 4 mps 705 mmHg 86%

    Day after tomorrow, 20 July, Saturday

    Time Temperature Precipitation Wind Pressure Humidity
    00:00 +26°C° 0 mm 4 mps 705 mmHg 87%
    01:00 +25°C° 0 mm 3 mps 704 mmHg 87%
    02:00 +25°C° 0 mm 3 mps 704 mmHg 88%
    03:00 +25°C° 0.3 mm 3 mps 704 mmHg 89%
    04:00 +25°C° 0.3 mm 2 mps 704 mmHg 89%
    05:00 +25°C° 0.3 mm 2 mps 704 mmHg 89%
    06:00 +25°C° 0.5 mm 2 mps 704 mmHg 89%
    07:00 +25°C° 0.5 mm 2 mps 705 mmHg 89%
    08:00 +25°C° 0.5 mm 2 mps 705 mmHg 89%
    09:00 +26°C° 0.5 mm 2 mps 705 mmHg 86%
    10:00 +26°C° 0.5 mm 2 mps 706 mmHg 84%
    11:00 +27°C° 0.5 mm 2 mps 706 mmHg 81%
    12:00 +27°C° 0.3 mm 2 mps 705 mmHg 80%
    13:00 +27°C° 0.3 mm 2 mps 705 mmHg 80%
    14:00 +27°C° 0.3 mm 2 mps 704 mmHg 79%
    15:00 +27°C° 0 mm 2 mps 704 mmHg 80%
    16:00 +27°C° 0 mm 3 mps 704 mmHg 80%
    17:00 +27°C° 0 mm 3 mps 704 mmHg 81%
    18:00 +26°C° 0 mm 3 mps 704 mmHg 83%
    19:00 +26°C° 0 mm 2 mps 704 mmHg 86%
    20:00 +25°C° 0 mm 2 mps 705 mmHg 89%
    21:00 +25°C° 0.3 mm 2 mps 705 mmHg 90%
    22:00 +25°C° 0.3 mm 2 mps 705 mmHg 91%
    23:00 +25°C° 0.3 mm 2 mps 705 mmHg 92%

    21 July, Sunday

    Time Temperature Precipitation Wind Pressure Humidity
    00:00 +25°C° 0.1 mm 2 mps 704 mmHg 92%
    01:00 +24°C° 0.1 mm 2 mps 704 mmHg 91%
    02:00 +24°C° 0.1 mm 2 mps 704 mmHg 91%
    03:00 +24°C° 0.4 mm 2 mps 704 mmHg 91%
    04:00 +24°C° 0.4 mm 2 mps 704 mmHg 92%
    05:00 +24°C° 0.4 mm 2 mps 704 mmHg 92%
    06:00 +24°C° 0.1 mm 2 mps 704 mmHg 91%
    07:00 +24°C° 0.1 mm 1 mps 704 mmHg 91%
    08:00 +25°C° 0.1 mm 1 mps 705 mmHg 90%
    09:00 +26°C° 0 mm 2 mps 705 mmHg 84%
    10:00 +27°C° 0 mm 2 mps 705 mmHg 79%
    11:00 +29°C° 0 mm 2 mps 705 mmHg 73%
    12:00 +29°C° 0.4 mm 3 mps 704 mmHg 71%
    13:00 +30°C° 0.4 mm 3 mps 704 mmHg 70%
    14:00 +30°C° 0.4 mm 4 mps 703 mmHg 68%
    15:00 +30°C° 0.3 mm 4 mps 703 mmHg 70%
    16:00 +29°C° 0.3 mm 4 mps 703 mmHg 71%
    17:00 +29°C° 0.3 mm 5 mps 703 mmHg 73%
    18:00 +28°C° 0.1 mm 4 mps 703 mmHg 77%
    19:00 +27°C° 0.1 mm 4 mps 704 mmHg 82%
    20:00 +26°C° 0.1 mm 3 mps 704 mmHg 86%
    21:00 +26°C° 0 mm 3 mps 704 mmHg 87%
    22:00 +25°C° 0 mm 3 mps 704 mmHg 88%
    23:00 +25°C° 0 mm 2 mps 705 mmHg 89%

    22 July, Monday

    Time Temperature Precipitation Wind Pressure Humidity
    00:00 +25°C° 0 mm 3 mps 704 mmHg 90%
    01:00 +25°C° 0 mm 3 mps 704 mmHg 90%
    02:00 +24°C° 0 mm 3 mps 703 mmHg 91%
    03:00 +24°C° 0 mm 2 mps 703 mmHg 91%
    04:00 +24°C° 0 mm 2 mps 703 mmHg 91%
    05:00 +24°C° 0 mm 2 mps 703 mmHg 91%
    06:00 +25°C° 0 mm 2 mps 703 mmHg 88%
    07:00 +26°C° 0 mm 2 mps 704 mmHg 85%
    08:00 +26°C° 0 mm 3 mps 704 mmHg 82%
    09:00 +28°C° 0 mm 3 mps 704 mmHg 78%
    10:00 +29°C° 0 mm 3 mps 705 mmHg 73%
    11:00 +30°C° 0 mm 4 mps 705 mmHg 68%
    12:00 +32°C° 0.7 mm 4 mps 704 mmHg 67%
    13:00 +32°C° 0.7 mm 4 mps 703 mmHg 66%
    14:00 +32°C° 0.7 mm 5 mps 703 mmHg 65%
    15:00 +30°C° 2.6 mm 5 mps 703 mmHg 69%
    16:00 +29°C° 2.6 mm 5 mps 702 mmHg 73%
    17:00 +29°C° 2.6 mm 6 mps 702 mmHg 77%
    18:00 +28°C° 1.5 mm 5 mps 703 mmHg 80%
    19:00 +27°C° 1.5 mm 5 mps 703 mmHg 83%
    20:00 +26°C° 1.5 mm 5 mps 704 mmHg 86%
    21:00 +26°C° 1.3 mm 4 mps 704 mmHg 88%
    22:00 +26°C° 1.3 mm 4 mps 704 mmHg 89%
    23:00 +25°C° 1.3 mm 3 mps 704 mmHg 90%

    23 July, Tuesday

    Time Temperature Precipitation Wind Pressure Humidity
    00:00 +25°C° 0.4 mm 3 mps 704 mmHg 91%
    01:00 +25°C° 0.4 mm 3 mps 703 mmHg 91%
    02:00 +25°C° 0.4 mm 3 mps 703 mmHg 91%
    03:00 +25°C° 0.1 mm 3 mps 703 mmHg 91%
    04:00 +25°C° 0.1 mm 2 mps 703 mmHg 91%
    05:00 +25°C° 0.1 mm 2 mps 703 mmHg 92%
    06:00 +25°C° 0 mm 3 mps 703 mmHg 89%
    07:00 +26°C° 0 mm 3 mps 704 mmHg 85%
    08:00 +27°C° 0 mm 4 mps 704 mmHg 82%
    09:00 +28°C° 0 mm 4 mps 704 mmHg 77%
    10:00 +29°C° 0 mm 4 mps 704 mmHg 72%
    11:00 +30°C° 0 mm 4 mps 705 mmHg 67%
    12:00 +30°C° 0.6 mm 5 mps 704 mmHg 68%
    13:00 +30°C° 0.6 mm 5 mps 703 mmHg 68%
    14:00 +30°C° 0.6 mm 5 mps 703 mmHg 69%
    15:00 +30°C° 1 mm 5 mps 703 mmHg 71%
    16:00 +29°C° 1 mm 5 mps 703 mmHg 74%
    17:00 +28°C° 1 mm 5 mps 703 mmHg 76%
    18:00 +27°C° 0.3 mm 5 mps 703 mmHg 79%
    19:00 +27°C° 0.3 mm 5 mps 703 mmHg 83%
    20:00 +26°C° 0.3 mm 5 mps 704 mmHg 86%
    21:00 +26°C° 0.3 mm 4 mps 704 mmHg 87%
    22:00 +25°C° 0.3 mm 3 mps 704 mmHg 88%
    23:00 +25°C° 0.3 mm 3 mps 704 mmHg 89%
    Show more